Location: Newark
(9.4667°S, 159.8167°E)
Time: 15:51:45
(UTC+00:00)

Vanguard 1 - Pass Details

Date: 14 November 2019
Orbit: 651 x 3832 km, 34.3° (Epoch: 14 December)

Event Time Altitude Azimuth Distance (km) Brightness Sun altitude
Rises 13:45:08 0° 259° (W) 5,996 14.0 -60.6°
Enters shadow 13:45:14 - 259° (WSW) 5,980 14.0 -60.6°
Exits shadow 13:48:41 - 251° (WSW) 5,468 13.8 -60.3°
Reaches altitude 10° 13:49:13 10° 250° (WSW) 5,399 13.8 -60.2°
Maximum altitude 14:04:57 35° 188° (S) 4,748 13.5 -58.6°
Drops below altitude 10° 14:25:35 10° 128° (SE) 6,903 14.7 -55.9°
Sets 14:31:53 0° 119° (ESE) 7,768 15.1 -55.0°
